Retour au catalogue

STARLINK-5690

ActifCommunicationsVLEO
NORAD 55480·PAYLOAD·🇺🇸 United States

Lancé Feb 2, 2023 depuis Cape Canaveral Space Force Station

Loading…

Prochains Passages (prochaines 24 heures)

TLE

FraisSource: CelesTrak SupGP

Époque: Sep 14, 2026, 21:43 UTC

1 55480C 23015AH  26257.90534722 -.00042778  00000+0 -15493-2 0  2577
2 55480  43.0034 350.9623 0001431 278.1656 114.6312 15.27602217    12

Suivez STARLINK-5690 en temps réel avec AllMySat

Download on the App Store